W5CGC Weather Reports


Display with metric or nautical units.
time (UTC)temp
F
wind
direction
speed
MPH
gust
MPH
rain 1hr
in
rain 24hr
in
rain mn
in
humidity
%
barometer
mb
20171125110850 48 176 0.0 0.0 0.00 0.00 0.00 78 1012.5
20171125105345 49 176 0.0 0.0 0.00 0.00 0.00 76 1012.1
20171125103833 49 176 0.0 0.0 0.00 0.00 0.00 74 1011.7
20171125102331 50 176 0.0 1.0 0.00 0.00 0.00 72 1011.5
20171125100831 50 137 0.0 1.0 0.00 0.00 0.00 72 1011.4
20171125095333 51 136 0.0 1.0 0.00 0.00 0.00 71 1011.4
20171125093829 52 108 0.0 1.0 0.00 0.00 0.00 69 1011.5
20171125092332 53 108 0.0 1.0 0.00 0.00 0.00 67 1011.2
20171125090824 53 109 0.0 1.0 0.00 0.00 0.00 65 1010.8
20171125085315 54 118 0.0 1.0 0.00 0.00 0.00 63 1010.4
20171125083822 54 107 0.0 2.0 0.00 0.00 0.00 62 1010.3
20171125082317 55 154 0.0 1.0 0.00 0.00 0.00 61 1010.1
20171125080816 56 157 0.0 2.0 0.00 0.00 0.00 59 1010.1
20171125075346 57 221 0.0 1.0 0.00 0.00 0.00 57 1010.0
20171125073803 57 231 1.0 3.0 0.00 0.00 0.00 56 1010.0
20171125072305 57 183 1.0 4.0 0.00 0.00 0.00 56 1010.1
20171125070800 57 214 1.0 5.0 0.00 0.00 0.00 57 1010.3
20171125065306 57 214 1.0 2.0 0.00 0.00 0.00 57 1010.4
20171125063809 57 193 1.0 3.0 0.00 0.00 0.00 57 1010.5
20171125062304 57 174 0.0 2.0 0.00 0.00 0.00 56 1010.4
20171125061210 58 155 0.0 2.0 0.00 0.00 0.00 56 1010.4
20171125055327 58 158 0.0 1.0 0.00 0.00 0.00 55 1010.3
20171125053826 59 190 0.0 1.0 0.00 0.00 0.00 53 1010.2
20171125052333 60 205 1.0 0.0 0.00 0.00 0.00 51 1010.1
20171125051238 61 248 0.0 4.0 0.00 0.00 0.00 50 1010.1
20171125045337 62 207 1.0 5.0 0.00 0.00 0.00 49 1010.1
20171125043828 62 204 3.0 6.0 0.00 0.00 0.00 48 1009.7
20171125042337 63 219 3.0 7.0 0.00 0.00 0.00 47 1009.5
20171125041227 63 226 2.0 8.0 0.00 0.00 0.00 46 1009.3
20171125035325 64 187 4.0 9.0 0.00 0.00 0.00 46 1009.2
20171125033829 64 226 4.0 10.0 0.00 0.00 0.00 45 1009.4
20171125032903 64 214 4.0 9.0 0.00 0.00 0.00 44 1009.4
20171125031810 65 218 2.0 6.0 0.00 0.00 0.00 44 1009.6
20171125025337 65 132 3.0 8.0 0.00 0.00 0.00 43 1009.5
20171125023823 66 114 2.0 11.0 0.00 0.00 0.00 43 1009.2
20171125022326 66 174 1.0 7.0 0.00 0.00 0.00 43 1009.0
20171125021223 66 228 1.0 6.0 0.00 0.00 0.00 43 1009.0
20171125015320 66 243 1.0 5.0 0.00 0.00 0.00 43 1008.9
20171125013819 67 242 1.0 7.0 0.00 0.00 0.00 43 1008.8
20171125012322 67 148 1.0 5.0 0.00 0.00 0.00 43 1008.5
20171125011220 67 158 1.0 4.0 0.00 0.00 0.00 42 1008.4
20171125005323 68 208 1.0 3.0 0.00 0.00 0.00 42 1008.5
20171125003844 69 265 0.0 8.0 0.00 0.00 0.00 40 1008.6
20171125002320 70 218 2.0 8.0 0.00 0.00 0.00 39 1008.3
20171125001228 70 129 4.0 9.0 0.00 0.00 0.00 38 1008.1
20171124235326 71 172 3.0 10.0 0.00 0.00 0.00 38 1008.1
20171124233818 72 214 3.0 7.0 0.00 0.00 0.00 36 1008.3
20171124232323 72 188 1.0 6.0 0.00 0.00 0.00 35 1008.4
20171124231219 73 195 2.0 7.0 0.00 0.00 0.00 34 1008.2
20171124225316 74 208 3.0 6.0 0.00 0.00 0.00 33 1008.3
20171124223927 75 194 3.0 6.0 0.00 0.00 0.00 33 1008.4
20171124222320 75 189 2.0 10.0 0.00 0.00 0.00 33 1008.4
20171124221233 76 160 3.0 12.0 0.00 0.00 0.00 32 1008.5
20171124215319 76 167 4.0 13.0 0.00 0.00 0.00 31 1008.7
20171124213829 77 186 6.0 13.0 0.00 0.00 0.00 31 1008.6
20171124212317 77 176 5.0 14.0 0.00 0.00 0.00 32 1008.7
20171124211228 78 262 7.0 12.0 0.00 0.00 0.00 30 1008.9
20171124205307 78 187 5.0 12.0 0.00 0.00 0.00 29 1009.0
20171124203805 78 227 2.0 10.0 0.00 0.00 0.00 30 1009.1
20171124202301 76 210 2.0 11.0 0.00 0.00 0.00 33 1009.2
20171124201232 76 214 2.0 11.0 0.00 0.00 0.00 34 1009.6
20171124195301 76 196 2.0 10.0 0.00 0.00 0.00 33 1009.9
20171124193752 75 226 2.0 11.0 0.00 0.00 0.00 35 1010.3
20171124192304 74 208 3.0 9.0 0.00 0.00 0.00 35 1010.4
20171124191158 74 156 3.0 8.0 0.00 0.00 0.00 36 1010.5
20171124185246 73 134 3.0 11.0 0.00 0.00 0.00 36 1010.9
20171124183742 73 224 3.0 12.0 0.00 0.00 0.00 36 1011.4
20171124182238 72 225 2.0 8.0 0.00 0.00 0.00 36 1011.9
20171124181143 71 215 3.0 9.0 0.00 0.00 0.00 38 1012.3
20171124175231 70 210 3.0 7.0 0.00 0.00 0.00 39 1012.7
20171124173743 69 141 3.0 7.0 0.00 0.00 0.00 40 1013.1
20171124172224 68 197 3.0 7.0 0.00 0.00 0.00 40 1013.4
20171124171121 66 225 1.0 6.0 0.00 0.00 0.00 44 1013.7
20171124165229 65 233 3.0 6.0 0.00 0.00 0.00 43 1013.9
20171124163722 64 166 1.0 5.0 0.00 0.00 0.00 47 1014.0
20171124162212 62 214 1.0 6.0 0.00 0.00 0.00 47 1014.3
20171124161127 61 155 1.0 3.0 0.00 0.00 0.00 49 1014.3
20171124155207 60 149 0.0 5.0 0.00 0.00 0.00 52 1014.4
20171124153718 57 225 0.0 4.0 0.00 0.00 0.00 54 1014.4
20171124152152 56 159 0.0 5.0 0.00 0.00 0.00 57 1014.4
20171124151049 54 138 2.0 6.0 0.00 0.00 0.00 58 1014.4
20171124145146 53 198 2.0 5.0 0.00 0.00 0.00 60 1014.6
20171124143643 52 174 1.0 3.0 0.00 0.00 0.00 62 1014.7
20171124142142 49 211 1.0 5.0 0.00 0.00 0.00 68 1014.4
20171124141041 46 206 2.0 4.0 0.00 0.00 0.00 73 1014.4
20171124135145 43 218 0.0 2.0 0.00 0.00 0.00 78 1014.5
20171124133633 42 215 0.0 0.0 0.00 0.00 0.00 78 1014.8
20171124132135 41 215 0.0 1.0 0.00 0.00 0.00 79 1014.7
20171124131052 41 224 0.0 2.0 0.00 0.00 0.00 79 1014.5
20171124125131 40 219 1.0 2.0 0.00 0.00 0.00 83 1014.6
20171124123629 39 156 0.0 0.0 0.00 0.00 0.00 83 1015.1
20171124122129 40 156 0.0 0.0 0.00 0.00 0.00 82 1015.1
20171124121045 40 156 0.0 0.0 0.00 0.00 0.00 81 1015.0
20171124115126 40 156 0.0 0.0 0.00 0.00 0.00 81 1015.1
20171124113630 41 156 0.0 0.0 0.00 0.00 0.00 81 1015.0
20171124112125 41 156 0.0 0.0 0.00 0.00 0.00 83 1014.9